Weather Roundup
Issued by NWS

Home | Current Version | Previous Version | Graphics & Text | Print | Product List | Glossary Off
Versions: 1 2 3 4 5 6 7 8 9 10 11 12 13 14 15 16 17 18 19 20 21 22 23 24 25 26 27 28 29 30 31 32 33 34 35 36 37 38 39 40 41 42 43 44 45 46 47 48 49 50

000
NZUS93 KARX 301610
HRRWXR

CURRENT HOURLY OBSERVATIONS ACROSS
MUCH OF THE UPPER MISSISSIPPI VALLEY
NATIONAL WEATHER SERVICE LA CROSSE WI
1100 AM CDT MON MAY 30 2016


...SOUTHEAST MINNESOTA...


CITY           SKY/WX    TMP DP  RH WIND       PRES   REMARKS
ROCHESTER      SUNNY     76  55  48 S9        30.04S
ROCHESTER/MAYO FAIR      76  50  40 SE8       30.04S
WINONA         SUNNY     73  61  64 E3        30.03S
AUSTIN         SUNNY     73  55  53 S10       30.04S
ALBERT LEA     SUNNY     75  55  50 S10       30.03S
DODGE CENTER   SUNNY     77  50  38 S10       30.03S
PRESTON        SUNNY     75  53  45 S9        30.05S
OWATONNA       SUNNY     77  55  47 S9        30.02F
FARIBAULT      CLOUDY    73  59  60 S7        30.02S
$$

...ELSEWHERE IN MINNESOTA...


CITY           SKY/WX    TMP DP  RH WIND       PRES   REMARKS
MINNEAPOLIS    PTSUNNY   77  55  46 S6        30.00S
INTNL FALLS    SUNNY     71  54  54 NW6       29.95S
DULUTH         MOSUNNY   74  44  34 NW14      29.97S
RED WING       SUNNY     75  61  60 SE5       30.00S
REDWOOD FALLS  MOSUNNY   76  54  46 S9        29.98F
MANKATO        SUNNY     75  54  46 S10G18    30.01S
WORTHINGTON      N/A     73  55  53 S14       30.01F
FAIRMONT       SUNNY     73  54  49 SE15      30.00F
$$

...SOUTHWEST WISCONSIN...


CITY           SKY/WX    TMP DP  RH WIND       PRES   REMARKS
LA CROSSE      SUNNY     76  57  51 S6        30.03F
PRAIRIE DU CHI MOSUNNY   75  54  48 CALM      30.06R
BOSCOBEL       SUNNY     80  52  37 E3        30.06S
LONE ROCK      SUNNY     77  56  48 W8        30.06R
PLATTEVILLE    SUNNY     77  49  38 NW7       30.07S
FORT MC COY    MOSUNNY   74  58  57 SW6       30.05F
CAMP DOUGLAS   CLOUDY    74  63  68 NW6       30.04S
MAUSTON-NEW LI CLOUDY    74  57  55 W6        30.04R
VIROQUA        FAIR      75  53  45 W7        30.07S
WIS DELLS      SUNNY     76  42  28 N7        30.05S
$$

...ELSEWHERE IN WISCONSIN...


CITY           SKY/WX    TMP DP  RH WIND       PRES   REMARKS
MILWAUKEE      MOSUNNY   78  59  51 NW10      30.02R
MADISON        MOSUNNY   76  59  55 NW7       30.04S
GREEN BAY      SUNNY     76  56  49 NW9       30.01S
EAU CLAIRE     MOSUNNY   76  55  48 W7        30.01F
BLACK RVR FLS  FAIR      74  58  57 SE3       30.03F
MEDFORD        CLOUDY    71  48  44 W8        30.03S
WAUSAU         SUNNY     74  49  41 W10       30.01S
WIS RAPIDS     SUNNY     77  44  30 W6        30.05R
MARSHFIELD     MOSUNNY   74  49  41 W8        30.04R
RICE LAKE      CLOUDY    74  51  44 SW6       30.03S
$$

...NORTHEAST IOWA...


CITY           SKY/WX    TMP DP  RH WIND       PRES   REMARKS
WATERLOO       CLOUDY    70  58  65 SE13G18   30.02F
DUBUQUE        MOSUNNY   77  53  43 N10       30.09R
DECORAH        PTSUNNY   75  50  41 S8        30.04F
MASON CITY     SUNNY     74  58  57 SE14      30.05F
CHARLES CITY   CLOUDY    73  55  53 S10       30.05S
OELWEIN        CLOUDY    72  57  60 SE18      30.03F
$$

...ELSEWHERE IN IOWA...


CITY           SKY/WX    TMP DP  RH WIND       PRES   REMARKS
DES MOINES     MOSUNNY   80  61  52 CALM      30.01F
IOWA CITY      PTSUNNY   76  62  62 NE7       30.08S
FORT DODGE     SUNNY     77  54  44 SE14G22   30.01F
MARSHALLTOWN   SUNNY     75  55  49 E16       30.02F
CEDAR RAPIDS   PTSUNNY   74  62  66 NE7       30.07R
$$

...NORTHERN ILLINOIS...


CITY           SKY/WX    TMP DP  RH WIND       PRES   REMARKS
CHICAGO-OHARE  MOSUNNY   79  60  52 SW10      30.03S
CHICAGO-MIDWAY MOSUNNY   81  59  47 SW10G22   30.03S
MOLINE         CLOUDY    76  63  64 W13       30.07R
ROCKFORD       MOSUNNY   81  60  48 W12       30.06S
PEORIA         CLOUDY    84  61  45 SW10      30.05F
$$

NOTE: "FAIR" INDICATES FEW OR NO CLOUDS BELOW 12,000 FEET WITH NO
SIGNIFICANT WEATHER AND/OR OBSTRUCTIONS TO VISIBILITY. WIND
SPEEDS ARE IN MILES-PER-HOUR.




USA.gov is the U.S. government's official web portal to all federal, state and local government web resources and services.